This is the latest recevied weather packets stored in our database for station/object N6RDS-8. If no packets are shown the sender has not sent any weather packets the latest 10 day(s).
| Time | Temp. | Humidity | Pressure | Rain* | Wind** | Luminosity | Snow |
|---|---|---|---|---|---|---|---|
| 1777900127 | 17.78° C | 43% | 1018.5 hPa | 0 mm | - | 40 W/m² | - |
| 1777899823 | 17.78° C | 43% | 1018.2 hPa | 0 mm | - | 31 W/m² | - |
| 1777899520 | 17.78° C | 43% | 1018.1 hPa | 0 mm | - | 21 W/m² | - |
| 1777899218 | 17.22° C | 42% | 1017.8 hPa | 0 mm | - | 13 W/m² | - |
| 1777898915 | 17.22° C | 43% | 1017.7 hPa | 0 mm | - | 9 W/m² | - |
| 1777898612 | 17.22° C | 43% | 1017.5 hPa | 0 mm | - | 7 W/m² | - |
| 1777898309 | 17.22° C | 43% | 1017.7 hPa | 0 mm | - | 4 W/m² | - |
| 1777898007 | 17.22° C | 43% | 1017.7 hPa | 0 mm | - | 2 W/m² | - |
| 1777897703 | 17.22° C | 43% | 1017.6 hPa | 0 mm | - | 1 W/m² | - |
| 1777897400 | 17.22° C | 43% | 1017.6 hPa | 0 mm | - | 0 W/m² | - |
| 1777897095 | 17.78° C | 43% | 1017.8 hPa | 0 mm | - | 0 W/m² | - |
| 1777896792 | 17.78° C | 42% | 1017.7 hPa | 0 mm | - | 0 W/m² | - |
| 1777896489 | 17.78° C | 42% | 1017.6 hPa | 0 mm | - | 0 W/m² | - |
| 1777896186 | 17.78° C | 42% | 1017.7 hPa | 0 mm | - | 0 W/m² | - |
| 1777895884 | 17.78° C | 42% | 1017.7 hPa | 0 mm | - | 0 W/m² | - |
| 1777895582 | 17.78° C | 41% | 1017.5 hPa | 0 mm | - | 0 W/m² | - |
| 1777895279 | 17.78° C | 42% | 1017.5 hPa | 0 mm | - | 0 W/m² | - |
| 1777894976 | 17.78° C | 43% | 1017.5 hPa | 0 mm | - | 0 W/m² | - |
| 1777894674 | 17.78° C | 42% | 1017.8 hPa | 0 mm | - | 0 W/m² | - |
| 1777894369 | 17.78° C | 42% | 1017.8 hPa | 0 mm | - | 0 W/m² | - |
| 1777894067 | 17.78° C | 42% | 1017.7 hPa | 0 mm | - | 0 W/m² | - |
| 1777893758 | 16.67° C | 43% | 1017.8 hPa | 0 mm | - | 0 W/m² | - |
| 1777893455 | 15.56° C | 44% | 1017.7 hPa | 0 mm | - | 0 W/m² | - |
| 1777893152 | 15.56° C | 47% | 1017.6 hPa | 0 mm | - | 0 W/m² | - |
| 1777892848 | 15.56° C | 47% | 1017.6 hPa | 0 mm | - | 0 W/m² | - |
* Rain latest hour (hover to see other rain measurements)
** Current wind speed in m/s (hover to see current wind gust speed)